Home   Weather   Linköping   Past weeks

Flag for Sweden Past Weather in Linköping, Sweden — Yesterday and Last 2 Weeks

Now
50 °F

Partly sunny.


Feels Like: 44 °F
Forecast: 31 / 52 °F
Wind: 16 mph from Northeast

Location: Linkoping / Saab

Current Time: Apr 29, 2017 at 3:37:50 pm

Latest Report: Apr 29, 2017 at 3:20 pm


Visibility: N/A

Pressure: 30.07 "Hg

Humidity: 37%

Dew Point: 25 °F

Location of LinköpingLocation

Past Weather in Linköping — Graph

°F

Linköping Temperature Yesterday

Maximum temperature yesterday: 52 °F (at 1:20 pm)
Minimum temperature yesterday: 27 °F (at 4:20 am)
Average temperature yesterday: 40 °F

High & Low Weather Summary for the Past Weeks

 TemperatureHumidityPressure
High54 °F (Apr 21, 1:50 pm)100% (Apr 14, 2:20 pm)30.54 "Hg (Apr 14, 2:20 pm)
Low19 °F (Apr 17, 6:20 am)27% (Apr 22, 4:50 pm)29.27 "Hg (Apr 25, 6:20 am)
Average37 °F72%29.89 "Hg
* Reported Apr 14 2:20 pm — Apr 29 2:20 pm, Linköping, Weather by CustomWeather, © 2017

Note: Actual official high and low records may vary slightly from our data, if they occured in-between our weather recording intervals... More about our weather records

Advertising

Linköping Weather History for the Previous 24 Hours

Scroll right to see more
 ConditionsComfort  
Time TempWeatherWind HumidityBarometerVisibility
2:20 pm
Sat, Apr 29
50 °FMostly cloudy.14 mph40%30.07 "HgN/A
1:50 pm50 °FBroken clouds.13 mph40%30.07 "HgN/A
1:20 pm50 °FPartly sunny.13 mph40%30.07 "HgN/A
12:50 pm48 °FPartly sunny.12 mph46%30.07 "HgN/A
12:20 pm48 °FCloudy.12 mph50%30.07 "HgN/A
11:50 am46 °FMore clouds than sun.13 mph53%30.07 "HgN/A
11:20 am46 °FMostly cloudy.15 mph53%30.07 "HgN/A
10:50 am45 °FMore clouds than sun.13 mph53%30.07 "HgN/A
10:20 am43 °FPartly sunny.12 mph61%30.07 "HgN/A
9:50 am41 °FPartly sunny.10 mph66%30.09 "HgN/A
9:20 am39 °FPartly sunny.12 mph75%30.07 "HgN/A
8:50 am39 °FOvercast.10 mph75%30.07 "HgN/A
8:20 am37 °FOvercast.9 mph81%30.09 "HgN/A
7:50 am36 °FLight rain. More clouds than sun.8 mph87%30.09 "HgN/A
7:20 am36 °FMostly cloudy.7 mph87%30.09 "HgN/A
6:50 am34 °FBroken clouds.7 mph93%30.09 "HgN/A
6:20 am34 °FSunny.6 mph87%30.09 "Hg10 mi
5:50 am34 °FPassing clouds.6 mph87%30.09 "HgN/A
5:20 am34 °FOvercast.5 mph87%30.09 "HgN/A
4:50 am34 °FMostly cloudy.6 mph93%30.09 "HgN/A
4:20 am34 °FMostly cloudy.5 mph93%30.09 "HgN/A
3:50 am34 °FMostly cloudy.3 mph93%30.09 "HgN/A
3:20 am34 °FOvercast.3 mph93%30.09 "HgN/A
2:50 am32 °FOvercast.2 mph100%30.09 "HgN/A
2:20 am32 °FIce fog.1 mph100%30.09 "Hg4 mi
1:50 am32 °FPassing clouds.2 mph100%30.09 "Hg6 mi
1:20 am32 °FPassing clouds.2 mph100%30.12 "HgN/A
12:50 am32 °FLow clouds.5 mph100%30.12 "HgN/A
12:20 am34 °FPassing clouds.5 mph100%30.09 "HgN/A
11:50 pm
Fri, Apr 28
34 °FPassing clouds.7 mph93%30.12 "HgN/A
11:20 pm36 °FOvercast.8 mph87%30.12 "HgN/A
10:50 pm34 °FPassing clouds.6 mph93%30.12 "HgN/A
10:20 pm36 °FPassing clouds.10 mph87%30.12 "HgN/A
9:50 pm37 °FPassing clouds.14 mph81%30.12 "HgN/A
9:20 pm37 °FPassing clouds.12 mph87%30.09 "HgN/A
8:50 pm39 °FPassing clouds.14 mph81%30.09 "HgN/A
8:20 pm39 °FPartly sunny.14 mph81%30.09 "HgN/A
7:50 pm41 °FPassing clouds.17 mph76%30.09 "HgN/A
7:20 pm43 °FPassing clouds.15 mph71%30.07 "HgN/A
6:50 pm43 °FPassing clouds.18 mph71%30.07 "HgN/A
6:20 pm45 °FPassing clouds.17 mph71%30.07 "HgN/A
5:50 pm46 °FPassing clouds.18 mph66%30.04 "HgN/A
5:20 pm45 °FScattered clouds.20 mph66%30.04 "HgN/A
4:50 pm48 °FPassing clouds.20 mph54%30.04 "HgN/A
4:20 pm48 °FPassing clouds.20 mph50%30.04 "HgN/A
3:50 pm50 °FSunny.17 mph50%30.01 "Hg10 mi
3:20 pm50 °FSunny.18 mph47%30.01 "Hg10 mi
Weather by CustomWeather, © 2017

See weather overviewHow to use our weather pages